When you browse on this site, cookies collect data to enhance your experience and personalize the content and advertising you see.
Visit our Privacy Policy to learn more. By continuing to use the site, you agree to this use of cookies and data.
  • In Lithuania
  • List of Countries
  • For 7 days
  • Water Temperature
  • Satellite Maps
  • Weather Map
  • Weather Widgets
  • user-avatar
    Login

    Hourly Weather Korablino

    Today, 24 June, Monday

    Time Temperature Precipitation Wind Pressure Humidity
    00:00 +20°C° 1.8 mm 3 mps 749 mmHg 95%
    01:00 +19°C° 0.5 mm 3 mps 749 mmHg 95%
    02:00 +18°C° 0.5 mm 3 mps 749 mmHg 95%
    03:00 +17°C° 0 mm 3 mps 749 mmHg 95%
    04:00 +17°C° 0.6 mm 3 mps 749 mmHg 95%
    05:00 +17°C° 0.6 mm 3 mps 749 mmHg 95%
    06:00 +17°C° 0.6 mm 4 mps 749 mmHg 95%
    07:00 +18°C° 0.2 mm 4 mps 750 mmHg 94%
    08:00 +18°C° 0.2 mm 4 mps 750 mmHg 93%
    09:00 +18°C° 0.2 mm 3 mps 750 mmHg 92%
    10:00 +19°C° 0 mm 4 mps 750 mmHg 86%
    11:00 +20°C° 0 mm 4 mps 750 mmHg 80%
    12:00 +21°C° 0 mm 4 mps 750 mmHg 75%
    13:00 +22°C° 0 mm 4 mps 750 mmHg 71%
    14:00 +22°C° 0 mm 4 mps 750 mmHg 68%
    15:00 +23°C° 0 mm 4 mps 751 mmHg 65%
    16:00 +23°C° 0 mm 4 mps 750 mmHg 68%
    17:00 +23°C° 0 mm 4 mps 750 mmHg 70%
    18:00 +24°C° 0 mm 3 mps 750 mmHg 73%
    19:00 +21°C° 0 mm 3 mps 751 mmHg 74%
    20:00 +20°C° 0 mm 3 mps 751 mmHg 76%
    21:00 +18°C° 0 mm 3 mps 752 mmHg 78%
    22:00 +18°C° 0 mm 3 mps 752 mmHg 76%
    23:00 +17°C° 0 mm 3 mps 752 mmHg 74%

    Tomorrow, 25 June, Tuesday

    Time Temperature Precipitation Wind Pressure Humidity
    00:00 +16°C° 0 mm 3 mps 752 mmHg 72%
    01:00 +14°C° 0 mm 3 mps 752 mmHg 70%
    02:00 +15°C° 0 mm 2 mps 753 mmHg 67%
    03:00 +14°C° 0 mm 2 mps 753 mmHg 64%
    04:00 +14°C° 0 mm 2 mps 753 mmHg 69%
    05:00 +14°C° 0 mm 2 mps 753 mmHg 73%
    06:00 +13°C° 0 mm 3 mps 754 mmHg 78%
    07:00 +16°C° 0 mm 3 mps 754 mmHg 74%
    08:00 +18°C° 0 mm 3 mps 754 mmHg 71%
    09:00 +19°C° 0 mm 3 mps 755 mmHg 68%
    10:00 +20°C° 0 mm 3 mps 755 mmHg 65%
    11:00 +21°C° 0 mm 4 mps 755 mmHg 62%
    12:00 +21°C° 0 mm 4 mps 755 mmHg 59%
    13:00 +21°C° 0 mm 4 mps 755 mmHg 56%
    14:00 +21°C° 0 mm 4 mps 755 mmHg 56%
    15:00 +22°C° 0 mm 4 mps 755 mmHg 55%
    16:00 +21°C° 0 mm 4 mps 755 mmHg 59%
    17:00 +21°C° 0 mm 4 mps 755 mmHg 62%
    18:00 +20°C° 0 mm 3 mps 754 mmHg 66%
    19:00 +19°C° 0 mm 3 mps 755 mmHg 68%
    20:00 +17°C° 0 mm 2 mps 755 mmHg 70%
    21:00 +16°C° 0 mm 1 mps 755 mmHg 72%
    22:00 +15°C° 0 mm 1 mps 755 mmHg 73%
    23:00 +14°C° 0 mm 1 mps 755 mmHg 74%

    Day after tomorrow, 26 June, Wednesday

    Time Temperature Precipitation Wind Pressure Humidity
    00:00 +13°C° 0 mm 0 mps 755 mmHg 75%
    01:00 +13°C° 0 mm 1 mps 755 mmHg 74%
    02:00 +13°C° 0 mm 1 mps 755 mmHg 74%
    03:00 +13°C° 0 mm 2 mps 755 mmHg 73%
    04:00 +14°C° 0 mm 2 mps 755 mmHg 75%
    05:00 +14°C° 0 mm 2 mps 754 mmHg 77%
    06:00 +13°C° 0 mm 3 mps 754 mmHg 79%
    07:00 +16°C° 0 mm 3 mps 754 mmHg 76%
    08:00 +17°C° 0 mm 3 mps 754 mmHg 73%
    09:00 +19°C° 0 mm 3 mps 754 mmHg 71%
    10:00 +20°C° 0 mm 3 mps 753 mmHg 66%
    11:00 +21°C° 0 mm 3 mps 753 mmHg 61%
    12:00 +22°C° 0 mm 4 mps 753 mmHg 56%
    13:00 +22°C° 0.1 mm 4 mps 752 mmHg 58%
    14:00 +22°C° 0.1 mm 4 mps 752 mmHg 59%
    15:00 +22°C° 0.1 mm 4 mps 751 mmHg 61%
    16:00 +21°C° 0.3 mm 3 mps 751 mmHg 68%
    17:00 +19°C° 0.3 mm 3 mps 751 mmHg 75%
    18:00 +18°C° 0.3 mm 3 mps 750 mmHg 83%
    19:00 +17°C° 0 mm 2 mps 750 mmHg 85%
    20:00 +16°C° 0 mm 2 mps 750 mmHg 86%
    21:00 +15°C° 0 mm 1 mps 749 mmHg 88%
    22:00 +15°C° 0 mm 1 mps 749 mmHg 90%
    23:00 +14°C° 0 mm 1 mps 749 mmHg 92%

    27 June, Thursday

    Time Temperature Precipitation Wind Pressure Humidity
    00:00 +13°C° 0 mm 1 mps 749 mmHg 94%
    01:00 +13°C° 0 mm 1 mps 748 mmHg 94%
    02:00 +12°C° 0 mm 1 mps 748 mmHg 94%
    03:00 +12°C° 0 mm 1 mps 748 mmHg 94%
    04:00 +12°C° 0 mm 1 mps 747 mmHg 93%
    05:00 +13°C° 0 mm 1 mps 747 mmHg 92%
    06:00 +13°C° 0 mm 1 mps 747 mmHg 90%
    07:00 +14°C° 0 mm 1 mps 746 mmHg 86%
    08:00 +15°C° 0 mm 1 mps 746 mmHg 82%
    09:00 +18°C° 0 mm 1 mps 746 mmHg 77%
    10:00 +17°C° 0 mm 2 mps 745 mmHg 77%
    11:00 +17°C° 0 mm 2 mps 744 mmHg 77%
    12:00 +17°C° 0 mm 3 mps 744 mmHg 77%
    13:00 +18°C° 0 mm 3 mps 743 mmHg 75%
    14:00 +20°C° 0 mm 4 mps 742 mmHg 73%
    15:00 +21°C° 0 mm 5 mps 742 mmHg 71%
    16:00 +20°C° 0.9 mm 5 mps 741 mmHg 79%
    17:00 +17°C° 0.9 mm 5 mps 740 mmHg 87%
    18:00 +16°C° 0.9 mm 5 mps 739 mmHg 94%
    19:00 +16°C° 0.5 mm 5 mps 738 mmHg 95%
    20:00 +16°C° 0.5 mm 5 mps 737 mmHg 96%
    21:00 +15°C° 0.5 mm 5 mps 736 mmHg 96%
    22:00 +16°C° 0.9 mm 5 mps 735 mmHg 96%
    23:00 +16°C° 0.9 mm 6 mps 735 mmHg 96%

    28 June, Friday

    Time Temperature Precipitation Wind Pressure Humidity
    00:00 +16°C° 0.9 mm 6 mps 734 mmHg 95%
    01:00 +16°C° 0.5 mm 5 mps 733 mmHg 95%
    02:00 +17°C° 0.5 mm 5 mps 732 mmHg 96%
    03:00 +17°C° 0.5 mm 5 mps 731 mmHg 96%
    04:00 +17°C° 0.5 mm 5 mps 731 mmHg 96%
    05:00 +17°C° 0.5 mm 5 mps 731 mmHg 95%
    06:00 +17°C° 0.5 mm 5 mps 731 mmHg 95%
    07:00 +17°C° 0 mm 5 mps 731 mmHg 94%
    08:00 +16°C° 0 mm 6 mps 731 mmHg 93%
    09:00 +16°C° 0 mm 6 mps 731 mmHg 91%
    10:00 +16°C° 0.2 mm 6 mps 731 mmHg 89%
    11:00 +16°C° 0.2 mm 6 mps 731 mmHg 87%
    12:00 +16°C° 0.2 mm 7 mps 732 mmHg 84%
    13:00 +17°C° 0.4 mm 7 mps 732 mmHg 80%
    14:00 +17°C° 0.4 mm 7 mps 732 mmHg 76%
    15:00 +18°C° 0.4 mm 8 mps 732 mmHg 72%
    16:00 +17°C° 0.1 mm 7 mps 732 mmHg 73%
    17:00 +17°C° 0.1 mm 7 mps 732 mmHg 74%
    18:00 +16°C° 0.1 mm 6 mps 732 mmHg 75%
    19:00 +15°C° 0.1 mm 6 mps 732 mmHg 80%
    20:00 +14°C° 0.1 mm 5 mps 732 mmHg 84%
    21:00 +13°C° 0.1 mm 4 mps 732 mmHg 88%
    22:00 +12°C° 0 mm 4 mps 732 mmHg 90%
    23:00 +11°C° 0 mm 4 mps 732 mmHg 91%

    29 June, Saturday

    Time Temperature Precipitation Wind Pressure Humidity
    00:00 +10°C° 0 mm 5 mps 732 mmHg 92%
    01:00 +10°C° 0 mm 5 mps 731 mmHg 92%
    02:00 +9°C° 0 mm 5 mps 731 mmHg 92%
    03:00 +9°C° 0 mm 5 mps 731 mmHg 92%
    04:00 +9°C° 0 mm 5 mps 731 mmHg 91%
    05:00 +10°C° 0 mm 5 mps 731 mmHg 89%
    06:00 +10°C° 0 mm 5 mps 731 mmHg 88%
    07:00 +10°C° 0.2 mm 5 mps 730 mmHg 87%
    08:00 +10°C° 0.2 mm 5 mps 730 mmHg 86%
    09:00 +12°C° 0.2 mm 5 mps 730 mmHg 85%
    10:00 +11°C° 0.2 mm 6 mps 730 mmHg 82%
    11:00 +13°C° 0.2 mm 6 mps 731 mmHg 79%
    12:00 +14°C° 0.2 mm 7 mps 731 mmHg 77%
    13:00 +12°C° 0.2 mm 7 mps 731 mmHg 75%
    14:00 +12°C° 0.2 mm 8 mps 731 mmHg 74%
    15:00 +12°C° 0.2 mm 8 mps 731 mmHg 73%
    16:00 +11°C° 0 mm 8 mps 731 mmHg 74%
    17:00 +10°C° 0 mm 7 mps 731 mmHg 76%
    18:00 +10°C° 0 mm 7 mps 731 mmHg 77%
    19:00 +9°C° 0 mm 6 mps 732 mmHg 78%
    20:00 +9°C° 0 mm 6 mps 732 mmHg 78%
    21:00 +8°C° 0 mm 6 mps 732 mmHg 79%
    22:00 +8°C° 0 mm 5 mps 732 mmHg 79%
    23:00 +7°C° 0 mm 5 mps 732 mmHg 80%
    Show more